FW1302 Weather Reports


time (UTC)temp
C
wind
direction
speed
KPH
gust
KPH
rain 1hr
cm
rain 24hr
cm
rain mn
cm
humidity
%
barometer
mb
20260509222218 21 22 14.5 16.1 0.00 0.00 0.00 49 1026.0
20260509221317 22 29 8.0 9.7 0.00 0.00 0.00 46 1026.2
20260509215318 22 22 17.7 19.3 0.00 0.00 0.00 45 1026.7
20260509214317 22 24 16.1 17.7 0.00 0.00 0.00 44 1026.7
20260509212416 22 26 14.5 17.7 0.00 0.00 0.00 45 1026.9
20260509210420 20 45 6.4 8.0 0.00 0.00 0.00 53 1027.4
20260509205519 20 45 9.7 12.9 0.00 0.00 0.00 52 1027.6
20260509204616 21 22 11.3 12.9 0.00 0.00 0.00 51 1027.7
20260509203519 21 22 11.3 12.9 0.00 0.00 0.00 49 1027.9
20260509202617 21 22 6.4 9.7 0.00 0.00 0.00 48 1028.2
20260509201617 20 45 3.2 4.8 0.00 0.00 0.00 49 1028.3
20260509200618 20 45 4.8 6.4 0.00 0.00 0.00 52 1028.4
20260509195716 20 45 4.8 6.4 0.00 0.00 0.00 53 1028.6
20260509194718 20 45 4.8 6.4 0.00 0.00 0.00 52 1028.8
20260509193716 19 45 6.4 6.4 0.00 0.00 0.00 52 1029.0
20260509190723 18 45 4.8 8.0 0.00 0.00 0.00 58 1029.6
20260509185619 17 45 3.2 4.8 0.00 0.00 0.00 61 1029.8
20260509184618 16 45 8.0 9.7 0.00 0.00 0.00 65 1029.9
20260509183619 16 45 8.0 11.3 0.00 0.00 0.00 69 1030.0
20260509182618 16 45 8.0 9.7 0.00 0.00 0.00 71 1030.1
20260509181718 15 45 8.0 8.0 0.00 0.00 0.00 72 1030.5
20260509175720 16 45 8.0 8.0 0.00 0.00 0.00 68 1030.5
20260509174817 16 45 6.4 6.4 0.00 0.00 0.00 64 1030.6
20260509173818 16 45 6.4 8.0 0.00 0.00 0.00 64 1030.8
20260509172818 16 45 3.2 4.8 0.00 0.00 0.00 67 1030.8
20260509171819 15 45 3.2 4.8 0.00 0.00 0.00 67 1031.1
20260509164818 14 45 6.4 6.4 0.00 0.00 0.00 74 1031.4
20260509162818 13 45 6.4 6.4 0.00 0.00 0.00 74 1031.8
20260509161817 13 45 8.0 9.7 0.00 0.00 0.00 75 1031.8
20260509160916 13 45 9.7 9.7 0.00 0.00 0.00 73 1031.9
20260509155917 15 45 6.4 8.0 0.00 0.00 0.00 69 1032.0
20260509153918 15 67 1.6 1.6 0.00 0.00 0.00 68 1032.3
20260509152917 15 67 3.2 3.2 0.00 0.00 0.00 71 1032.3
20260509151919 13 67 0.0 0.0 0.00 0.00 0.00 73 1032.4
20260509151017 13 67 0.0 0.0 0.00 0.00 0.00 74 1032.5
20260509150116 13 67 0.0 0.0 0.00 0.00 0.00 74 1032.4
20260509145118 13 67 1.6 3.2 0.00 0.00 0.00 76 1032.4
20260509144117 12 67 1.6 1.6 0.00 0.00 0.00 79 1032.4
20260509143117 12 67 1.6 1.6 0.00 0.00 0.00 82 1032.6
20260509141118 10 67 0.0 0.0 0.00 0.00 0.00 89 1032.5
20260509141017 10 67 0.0 0.0 0.00 0.00 0.00 90 1032.5
20260509140017 10 67 0.0 0.0 0.00 0.00 0.00 91 1032.7
20260509135116 9 67 0.0 0.0 0.00 0.00 0.00 90 1032.5
20260509134117 9 67 1.6 3.2 0.00 0.00 0.00 89 1032.5
20260509133116 8 67 3.2 3.2 0.00 0.00 0.00 89 1032.5
20260509132117 8 67 1.6 3.2 0.00 0.00 0.00 90 1032.5
20260509130117 8 67 0.0 0.0 0.00 0.00 0.00 90 1032.6
20260509125118 8 67 0.0 1.6 0.00 0.00 0.00 90 1032.4
20260509123118 8 67 0.0 1.6 0.00 0.00 0.00 89 1032.2
20260509122217 8 67 0.0 1.6 0.00 0.00 0.00 89 1032.1
20260509121217 9 67 0.0 0.0 0.00 0.00 0.00 89 1032.1
20260509120218 9 67 0.0 0.0 0.00 0.00 0.00 89 1032.0
20260509113318 9 67 0.0 0.0 0.00 0.00 0.00 87 1032.2
20260509113216 9 67 0.0 0.0 0.00 0.00 0.00 87 1032.2
20260509112216 10 67 0.0 0.0 0.00 0.00 0.00 86 1032.2
20260509111219 10 67 0.0 0.0 0.00 0.00 0.00 85 1032.3
20260509110316 10 67 0.0 0.0 0.00 0.00 0.00 84 1032.2
20260509110217 10 67 0.0 0.0 0.00 0.00 0.00 84 1032.3
20260509105218 10 67 0.0 0.0 0.00 0.00 0.00 84 1032.3
20260509105118 10 67 0.0 0.0 0.00 0.00 0.00 84 1032.3
20260509105017 10 67 0.0 0.0 0.00 0.00 0.00 84 1032.3
20260509104018 10 67 1.6 3.2 0.00 0.00 0.00 84 1032.3
20260509103117 10 67 1.6 3.2 0.00 0.00 0.00 84 1032.2
20260509102117 10 67 1.6 3.2 0.00 0.00 0.00 83 1032.3
20260509101216 11 67 0.0 0.0 0.00 0.00 0.00 83 1032.3
20260509100218 11 67 0.0 0.0 0.00 0.00 0.00 82 1032.4
20260509095219 11 67 0.0 0.0 0.00 0.00 0.00 80 1032.4
20260509094317 11 67 1.6 3.2 0.00 0.00 0.00 80 1032.4
20260509093318 11 67 0.0 1.6 0.00 0.00 0.00 80 1032.4
20260509091416 12 360 0.0 0.0 0.00 0.00 0.00 79 1032.5
20260509090516 12 360 0.0 0.0 0.00 0.00 0.00 79 1032.5
20260509085518 12 360 0.0 0.0 0.00 0.00 0.00 79 1032.5
20260509084518 12 360 0.0 0.0 0.00 0.00 0.00 79 1032.7
20260509082618 12 360 0.0 0.0 0.00 0.00 0.00 78 1032.9
20260509081619 12 360 0.0 0.0 0.00 0.00 0.00 77 1032.9
20260509075717 12 360 0.0 0.0 0.00 0.00 0.00 77 1033.1
20260509074719 12 360 0.0 0.0 0.00 0.00 0.00 76 1032.9
20260509073718 13 360 0.0 0.0 0.00 0.00 0.00 75 1033.1
20260509071818 13 360 0.0 0.0 0.00 0.00 0.00 73 1032.9
20260509070818 13 360 0.0 0.0 0.00 0.00 0.00 72 1032.9
20260509064913 15 360 0.0 0.0 0.00 0.00 0.00 68 1032.9
20260509063913 15 360 0.0 0.0 0.00 0.00 0.00 67 1032.9
20260509062912 15 360 0.0 0.0 0.00 0.00 0.00 66 1032.9
20260509062010 15 360 0.0 0.0 0.00 0.00 0.00 67 1033.0
20260509060012 15 360 0.0 0.0 0.00 0.00 0.00 64 1032.9
20260509055110 15 360 0.0 0.0 0.00 0.00 0.00 64 1032.9
20260509053112 15 360 0.0 0.0 0.00 0.00 0.00 65 1032.9
20260509052113 15 360 0.0 0.0 0.00 0.00 0.00 66 1032.9
20260509051112 16 360 6.4 6.4 0.00 0.00 0.00 62 1032.9
20260509050211 16 327 3.2 6.4 0.00 0.00 0.00 59 1032.7
20260509045212 16 212 3.2 6.4 0.00 0.00 0.00 59 1032.7
20260509044213 16 217 4.8 8.0 0.00 0.00 0.00 58 1032.6
20260509044115 16 202 1.6 8.0 0.00 0.00 0.00 59 1032.7
20260509043211 16 214 3.2 8.0 0.00 0.00 0.00 59 1032.5
20260509042213 16 207 3.2 11.3 0.00 0.00 0.00 58 1032.4
20260509041212 16 206 3.2 11.3 0.00 0.00 0.00 58 1032.4
20260509040213 16 206 3.2 11.3 0.00 0.00 0.00 58 1032.2
20260509040113 16 208 4.8 9.7 0.00 0.00 0.00 58 1032.2
20260509035211 16 215 6.4 9.7 0.00 0.00 0.00 57 1032.1
20260509034210 16 225 6.4 9.7 0.00 0.00 0.00 57 1031.9
20260509033212 17 225 6.4 8.0 0.00 0.00 0.00 57 1031.8
20260509031310 17 225 11.3 14.5 0.00 0.00 0.00 55 1031.5
20260509030313 17 225 11.3 16.1 0.00 0.00 0.00 54 1031.5
20260509025312 17 225 12.9 16.1 0.00 0.00 0.00 53 1031.3
20260509025210 17 225 12.9 17.7 0.00 0.00 0.00 52 1031.3
20260509023213 18 229 16.1 20.9 0.00 0.00 0.00 50 1031.0
20260509022311 18 225 20.9 27.4 0.00 0.00 0.00 49 1031.1
20260509022210 18 225 12.9 17.7 0.00 0.00 0.00 50 1031.1
20260509021210 18 220 17.7 24.1 0.00 0.00 0.00 49 1031.1
20260509015213 18 222 17.7 22.5 0.00 0.00 0.00 49 1031.1
20260509014212 18 225 20.9 25.7 0.00 0.00 0.00 48 1030.9
20260509013310 18 224 20.9 25.7 0.00 0.00 0.00 48 1030.9
20260509012311 18 226 24.1 30.6 0.00 0.00 0.00 48 1031.1
20260509011410 18 230 24.1 37.0 0.00 0.00 0.00 47 1031.0
20260509005411 18 227 20.9 30.6 0.00 0.00 0.00 48 1031.1
20260509004412 18 226 17.7 22.5 0.00 0.00 0.00 48 1031.0
20260509003411 18 222 20.9 29.0 0.00 0.00 0.00 47 1031.1
20260509003316 18 227 24.1 35.4 0.00 0.00 0.00 47 1031.1
20260509001411 18 227 20.9 29.0 0.00 0.00 0.00 47 1031.0
20260509000412 18 222 29.0 37.0 0.00 0.00 0.00 46 1031.0
20260508234512 18 225 25.7 33.8 0.00 0.00 0.00 46 1031.0
20260508232512 18 226 20.9 29.0 0.00 0.00 0.00 44 1031.1
20260508231513 18 225 27.4 37.0 0.00 0.00 0.00 45 1031.1
20260508230511 18 222 20.9 29.0 0.00 0.00 0.00 46 1031.2
20260508225610 18 224 30.6 40.2 0.00 0.00 0.00 46 1031.1
20260508224611 17 224 25.7 33.8 0.00 0.00 0.00 46 1031.2
20260508223612 17 224 24.1 29.0 0.00 0.00 0.00 48 1031.2
20260508222611 17 227 22.5 27.4 0.00 0.00 0.00 48 1031.4